Terug naar catalogus

STARLINK-32671

ActiefCommunicatieVLEO
NORAD 62209·PAYLOAD·🇺🇸 United States

Gelanceerd Dec 4, 2024 vanaf Cape Canaveral Space Force Station

Loading…

Volgende Passages (komende 24 uur)

TLE

VersSource: CelesTrak SupGP

Epoch: Sep 15, 2026, 03:46 UTC

1 62209C 24229T   26258.15743056 -.00018477  00000+0 -66917-3 0  2580
2 62209  42.9995 281.1309 0001225 265.9229  69.0845 15.27590439    16

Volg STARLINK-32671 in realtime met AllMySat

Download on the App Store